Location: Arapaho Elementary School
(32.9607°N, 96.7625°W)
Time: 12:55:31
(UTC+00:00)

Cosmos 1500 Rocket - Pass Details

Date: 06 July 2022
Orbit: 602 x 631 km, 82.5° (Epoch: 07 August)

Event Time Altitude Azimuth Distance (km) Brightness Sun altitude
Exits shadow 08:44:30 44° 105° (ESE) 864 4.3 -26.0°
Maximum altitude 08:44:49 45° 92° (E) 854 4.4 -26.0°
Drops below altitude 10° 08:49:05 10° 20° (NNE) 2,013 7.1 -25.5°
Sets 08:51:23 0° 14° (NNE) 2,926 8.1 -25.2°
